Погода Троицко-Печерск

Погода Троицко-Печерск : погода сейчас, прогноз погоды и архив. Всё, что Вы хотите узнать о погоде Троицко-Печерск!

Хотите узнать прогноз погоды Троицко-Печерск? Тогда Вам сюда: Погода Троицко-Печерск

Поиск расширенной информации на нашем сайте:

Другие новости

Новости СМИ2

Главная страница сайта

Новости сайта

03.07.2017

Напоминаем, что на нашем специализированном сайте Метеоцентр.Азия вы можете получить высокодетализированные автоматические прогнозы погоды по пунктам России, СНГ и мира в авиационном формате (включающие направление и скорость ветра, видимость, явления погоды, количество и форму облачности, нижнюю и верхнюю границу облачности).

Рекомендуем: Заказать где купить постельное белье.

Погода Троицко-Печерск - сегодня

Время (UTC), дата Ветер
(°,м/с) 
Видим.   Явления Облачность Т
(°С)
Тd
(°С)
f(%) Тe
(°С)
Pmin
(гПа)
dP
(гПа)
Po
(мм)
O2
(г/м3)
Тmin Tmax R s Состояние
почвы
06 22.06.18 320 (СЗ) 20000 м    10/4 300 м средняя, верхняя 
[Cu med, cong|Ac As|Ci fib]
+14.6 +11.4 81 +18  998.1  2.3  736  279  +14.3         
09 22.06.18 320 (СЗ) 20000 м    9/3 600 м средняя, верхняя 
[Cu med, cong|Ac As|Ci]
+17.5 +11 66 +21  999.9  1.8  738  277           
12 22.06.18 330 (СЗ) 4{10}  20000 м    6/1 600 м верхняя 
[Cu med, cong|Cc]
+20.6 +10.3 52 +22  1000.6  739  275           
18 22.06.18 320 (СЗ) 20000 м    3/0 средняя 
[Ac cuf]
+16.6 +10.9 69 +21  1003.8  2.2  741  280           
21 22.06.18 310 (СЗ) 20000 м    3/0 средняя 
[Ac trans]
+13.5 +9.2 75 +14  1006.2  1.2  742  283           
00 23.06.18 340 (С) 20000 м    ясно 
+12.4 +8.4 77 +12  1007.3  1.1  743  285           
03 23.06.18 330 (СЗ) 20000 м    3/0 верхняя 
[Ci fib]
+14.6 +9.8 73 +16  1007.6  0.4  743  283  +12.3        влажная 
06 23.06.18 350 (С) 20000 м    5/5 600 м 
[Cu hum]
+18.9 +10.4 58 +22  1008.1  0.8  744  278           
09 23.06.18 350 (С) 20000 м    3/1 600 м верхняя 
[Cu hum|Ci fib]
+21.4 +10.9 51 +24  1008.4  0.3  744  276           
12 23.06.18 360 (С) 20000 м    3/0 верхняя 
[Ci fib]
+22 +10.7 49 +24  1009  0.7  745  276           
15 23.06.18 330 (СЗ) 20000 м    3/0 верхняя 
[Ci fib]
+11.7 +11.3 97 +16  1009.6  0.5  745  286           
18 23.06.18 300 (СЗ) 20000 м    4/0 верхняя 
[Ci fib]
+17 +12.3 74 +22  1010.4  0.6  746  280           
21 23.06.18 320 (СЗ) 10 км    3/0 верхняя 
[Ci fib]
+14.4 +11.4 82 +19  1011.2  0.7  746  283           
00 24.06.18 300 (СЗ) 10 км    1/0 верхняя 
[Ci fib]
+13.4 +11.1 86 +17  1013.2  1.8  747  285           
03 24.06.18 340 (С) 10 км    6/0 верхняя 
[Ci]
+19.1 +12.5 66 +26  1014.1  1.2  748  279  +12.8        влажная 
06 24.06.18 190 (Ю) 20000 м    8/0 верхняя 
[Cs]
+23.4 +9.2 40 +24  1013.9  748  276           
09 24.06.18 020 (С) 20000 м    8/1 600 м верхняя 
[Cu hum|Cs]
+25.8 +8.9 34 +26  1013.6  -0.2  748  274           
12 24.06.18 040 (СВ) 20000 м    8/1 600 м верхняя 
[Cu hum|Cs]
+26.9 +9 32 +27  1013.4  -0.1  748  273           
18 24.06.18 270 (З) 20000 м    4/0 средняя, верхняя 
[Ac trans|Ci fib]
+19.7 +14.8 73 +29  1014.6  1.2  749  278           
21 24.06.18 280 (З) 20000 м    1/0 верхняя 
[Ci fib]
+16.2 +13.3 83 +23  1014.1  -0.7  748  282           
00 25.06.18 280 (З) 20000 м    3/0 верхняя 
[Ci fib]
+16.4 +13 80 +22  1015.4  1.3  749  282           
03 25.06.18 310 (СЗ) 20000 м    3/0 верхняя 
[Ci fib]
+23.3 +12.5 51 +28  1015.7  0.6  750  276  +14.6        влажная 
06 25.06.18 010 (С) 20000 м    1/0 верхняя 
[Ci fib]
+27.6 +11 36 +30  1015.8  0.4  750  272  +15.1         
09 25.06.18 050 (СВ) 20000 м    3/1 600 м верхняя 
[Cu hum|Ci fib]
+29 +11.8 35 +33  1015.8  750  271           
12 25.06.18 360 (С) 20000 м    3/1 600 м верхняя 
[Cu hum|Cs]
+30.3 +12.5 34 +35  1015.4  -0.3  750  270           
Время (UTC), дата Ветер
(°,м/с) 
Видим.   Явления Облачность Т
(°С)
Тd
(°С)
f(%) Тe
(°С)
Pmin
(гПа)
dP
(гПа)
Po
(мм)
O2
(г/м3)
Тmin Tmax R s Состояние
почвы

Для получения пояснительной информации подведите курсор к названию столбца.

ПОГОДА Троицко-Печерск - архив

Всё, что Вы хотите узнать о погоде Троицко-Печерск - удобно и подробно!

Выберите нужную дату (начиная с 1 января 2015* года) и нажмите кнопку "Найти".
Будут отображены архивные сводки погоды по пункту Троицко-Печерск, начиная с указанной даты.


Отображать данные в формате CSV (для использования в таблицах Excel)


Внимание! Наш архив погоды предназначен исключительно для личного некоммерческого использования в познавательных целях. Если Вам необходимы официальные справки о состоянии погоды (для производственных, юридических, коммерческих и т.п. целей), обращайтесь в органы Росгидромета.

*Примечание: данная дата относится к архиву по метеостанциям СССР (Россия, СНГ, Балтия).
Архив по метеостанциям Зарубежной Европы и Азии (кроме Китая) хранится 10 дней, по другим регионам земного шара (Китай, Африка, Америка, Австралия, Океания) - 1 день.

Троицко-Печерск - район местоположения метеостанции


Название, широта, долгота, высота метеостанции:
Троицко-Печерск 62.7°ш. 56.2°д. 139 м над ур. моря [Российская Федерация]

Дополнительная информация

В oтличие oт бoльшинства пoгoдных сайтoв мы публикуем пoдрoбную метеoинфoрмацию в детальнoм прoфессиoнальнoм фoрмате.

Характеристики температуры и влажнoсти вoздуха измеряются на высoте 2 м в тени вдали oт зданий и деревьев.
Скoрoсть ветра измеряется на высoте 10 м (на урoвне рoста челoвека скoрoсть ветра ниже в 1.5-2 раза). Если метеoстанция нахoдится в гoрoде или в лесу, тo скoрoсть ветра занижена на 2-4 м/с пo сравнению с oткрытым местoм. Скoрoсть ветра над акватoриями крупных рек и oзёр, а также на вершинах хoлмoв на 2-5 м/с выше, чем в oбычных услoвиях.
Атмoсфернoе давление в разных тoчках местнoсти мoжет значительнo oтличаться oт давления на метеoстанции, в зависимoсти oт услoвий рельефа (при пoдъёме на 10 м давление пoнижается примернo на 1 мм рт.ст.).